Regional Weather Roundup
Issued by NWS

Home | Current Version | Previous Version | Graphics & Text | Print | Product List | Glossary On
Versions: 1 2 3 4 5 6 7 8 9 10 11 12 13 14 15 16 17 18 19 20 21 22 23 24 25 26 27 28 29 30 31 32 33 34 35 36 37 38 39 40 41 42 43 44 45 46 47 48 49 50
000
ASUS43 KOAX 170210
RWRNE

WEATHER ROUNDUP FOR NEBRASKA
NATIONAL WEATHER SERVICE OMAHA NE
900 PM CDT MON OCT 16 2017

NOTES: SATELLITE DATA IS BEING USED TO AUGMENT CLOUD COVER ABOVE
       12000 FEET.
       "FAIR" INDICATES FEW OR NO CLOUDS BELOW 12,000 FEET WITH NO
       SIGNIFICANT WEATHER AND/OR OBSTRUCTIONS TO VISIBILITY.


NEZ001>004-019>022-054>056-170300-
NEBRASKA PANHANDLE

CITY           SKY/WX    TMP DP  RH WIND       PRES   REMARKS
SCOTTSBLUFF    CLOUDY    48  26  42 W3        30.17R
ALLIANCE       CLEAR     50  27  40 N10       30.15R
CHADRON        CLEAR     48  28  46 CALM      30.13R
GORDON         FAIR      44  32  63 W3        30.13S
KIMBALL        CLOUDY    53  21  28 NW5       30.22R
SIDNEY         CLOUDY    47  26  44 NW9       30.19R
$$

NEZ057>060-069>072-079>082-170300-
SOUTHWEST NEBRASKA

CITY           SKY/WX    TMP DP  RH WIND       PRES   REMARKS
NORTH PLATTE   PTCLDY    49  40  71 NW3       30.09R
IMPERIAL       CLOUDY    59  28  30 NW6       30.13R
LEXINGTON      CLOUDY    63  35  35 S12       30.08S
MCCOOK         MOCLDY    61  38  42 SW8       30.09S
OGALLALA       CLEAR     52  32  46 W6        30.12R
$$

NEZ005>010-023>029-035>040-094-170300-
NORTH CENTRAL NEBRASKA

CITY           SKY/WX    TMP DP  RH WIND       PRES   REMARKS
VALENTINE      CLEAR     51  34  52 NW5       30.08R
AINSWORTH      CLEAR     56  36  46 NW6       30.08R
BROKEN BOW     CLEAR     51  39  63 CALM      30.06R
O`NEILL        CLEAR     51  42  72 NW5       30.05R
ORD            CLEAR     52  38  58 S9        30.04S
THEDFORD       PTCLDY    54  31  42 W6        30.10R
$$

NEZ041-046>049-061>064-073>077-083>087-170300-
SOUTH CENTRAL NEBRASKA

CITY           SKY/WX    TMP DP  RH WIND       PRES   REMARKS
GRAND ISLAND   CLEAR     58  38  47 S14       30.08F
AURORA         CLOUDY    60  36  40 S10       30.09F
HASTINGS       CLOUDY    59  35  40 S8        30.11S
HEBRON         PTCLDY    60  40  46 S8        30.14R
HOLDREGE       CLOUDY    63  37  38 S13       30.09S
KEARNEY        CLOUDY    58  38  47 S13       30.10S
YORK           PTCLDY    57  39  51 S10       30.11S
$$

NEZ011>018-030>034-042>045-170300-
NORTHEAST NEBRASKA

CITY           SKY/WX    TMP DP  RH WIND       PRES   REMARKS
NORFOLK        MOCLDY    62  37  39 S14       30.05S
ALBION         CLEAR     56  39  53 SE3       30.06F
BLAIR          CLEAR     61  41  48 S10       30.10F
COLUMBUS       CLEAR     61  39  44 S12       30.09S
FREMONT        CLEAR     61  40  46 S9        30.10F
TEKAMAH        CLEAR     55  32  41 S7        30.08S
WAYNE          CLEAR     53  37  53 SW3       30.05S
$$

NEZ050>053-065>068-078-088>093-170300-
SOUTHEAST NEBRASKA

CITY           SKY/WX    TMP DP  RH WIND       PRES   REMARKS
LINCOLN        CLEAR     57  42  57 S12       30.13S
OMAHA EPPLEY   CLEAR     63  40  42 S14       30.12R
BEATRICE       CLEAR     60  41  49 S14       30.15S
FALLS CITY     CLEAR     57  40  52 S9        30.18S
NEBRASKA CITY  CLEAR     58  41  53 S12       30.15S
PLATTSMOUTH    CLEAR     59  40  50 S9        30.14R
$$

NEZ044-045-051>053-067-170300-
OMAHA AREA

CITY           SKY/WX    TMP DP  RH WIND       PRES   REMARKS
OMAHA EPPLEY   CLEAR     63  40  42 S14       30.12R
BLAIR          CLEAR     61  41  48 S10       30.10F
FREMONT        CLEAR     61  40  46 S9        30.10F
MILLARD        CLEAR     61  43  50 SE7       30.12S
OFFUTT AFB     CLEAR     59  40  48 S10       30.12S
PLATTSMOUTH    CLEAR     59  40  50 S9        30.14R
WAHOO          FAIR      54  40  60 S6        30.10F
$$




USA.gov is the U.S. government's official web portal to all federal, state and local government web resources and services.